Home > Weather > Guayaquil > Past weeks

Flag for Ecuador Weather for the Past 2 Weeks in Guayaquil, Ecuador

Now
77 °F

Passing clouds.


Feels Like: 79 °F
Forecast: 76 / 90 °F
Wind: 6 mph from Southwest

Location: Guayaquil / Simon Bolivar

Current Time: May 4, 2016 at 4:09:17 AM

Latest Report: May 4, 2016 at 3:00 AM


Visibility: N/A

Pressure: 29.83 "Hg

Humidity: 79%

Dew Point: 70 °F

Location of GuayaquilLocation

Historic Weather in Guayaquil — Graph

°F

Guayaquil Temperature Yesterday

Maximum temperature yesterday: 91 °F (at 1:00 PM)
Minimum temperature yesterday: 77 °F (at 4:00 AM)
Average temperature yesterday: 84 °F

High & Low Weather Summary for the Past Weeks

 TemperatureHumidityPressure
High91 °F (Apr 19, 1:00 PM)94% (Apr 28, 2:00 AM)29.95 "Hg (Apr 28, 2:00 AM)
Low73 °F (Apr 30, 4:00 AM)49% (May 2, 2:00 PM)29.68 "Hg (Apr 25, 3:00 PM)
Average82 °F74%29.81 "Hg
* Reported Apr 19 3:00 AM — May 4 3:00 AM, Guayaquil, Weather by CustomWeather, © 2016

Note: Actual official high and low records may vary slightly from our data, if they occured in-between our weather recording intervals... More about our weather records

Advertising

Guayaquil Weather History for the Previous 24 Hours

Scroll right to see more
 ConditionsComfort  
Time TempWeatherWind HumidityBarometerVisibility
3:00 AM
Wed, May 4
77 °FPassing clouds.6 mph79%29.83 "HgN/A
2:00 AM79 °FPartly cloudy.9 mph74%29.86 "HgN/A
1:00 AM79 °FPassing clouds.8 mph70%29.86 "HgN/A
12:00 AM79 °FClear.9 mph74%29.89 "Hg10 mi
11:00 PM
Tue, May 3
82 °FClear.8 mph62%29.89 "Hg10 mi
10:00 PM81 °FClear.9 mph70%29.86 "Hg10 mi
9:00 PM84 °FClear.12 mph66%29.83 "Hg10 mi
8:00 PM84 °FClear.12 mph66%29.80 "Hg10 mi
7:00 PM86 °FPassing clouds.7 mph62%29.80 "HgN/A
6:00 PM86 °FScattered clouds.6 mph66%29.77 "HgN/A
5:00 PM90 °FPassing clouds.8 mph59%29.74 "HgN/A
4:00 PM91 °FPassing clouds.8 mph56%29.74 "HgN/A
3:00 PM91 °FScattered clouds.6 mph56%29.77 "HgN/A
2:00 PM91 °FScattered clouds.7 mph49%29.80 "HgN/A
1:00 PM91 °FPassing clouds.7 mph49%29.83 "HgN/A
12:00 PM90 °FPassing clouds.5 mph52%29.86 "HgN/A
11:00 AM88 °FPassing clouds.5 mph59%29.89 "HgN/A
10:00 AM84 °FPassing clouds.3 mph70%29.92 "HgN/A
9:00 AM82 °FPassing clouds.6 mph66%29.92 "HgN/A
8:00 AM79 °FScattered clouds.8 mph84%29.92 "HgN/A
7:00 AM77 °FPartly sunny.8 mph89%29.89 "HgN/A
6:00 AM77 °FPassing clouds.7 mph89%29.89 "HgN/A
5:00 AM77 °FPassing clouds.10 mph89%29.86 "HgN/A
4:00 AM77 °FPassing clouds.6 mph79%29.86 "HgN/A
Weather by CustomWeather, © 2016

See weather overviewHow to use our weather pages